Wind_Speed
103 101 100 98 96 92 88 83 77 73 77 79 76 70 67 67 69 71 74 76 80 86 93 101 106 110 114 115 118 125 128 130 129 124 120 115 110 106
101 98 95 92 89 84 79 74 70 65 65 74 71 66 63 62 62 65 70 73 75 79 84 90 96 104 111 114 117 120 124 129 130 131 126 122 117 112
96 92 87 84 80 75 72 68 66 63 57 71 65 64 62 59 56 58 63 68 70 73 77 81 86 93 100 110 117 119 123 127 130 132 131 128 125 120
89 84 80 76 72 70 67 64 61 60 54 61 64 61 60 59 55 55 57 62 66 68 69 77 80 84 89 97 108 118 122 125 129 130 135 133 130 126
82 77 73 70 70 67 63 61 59 57 54 53 58 55 56 56 56 56 53 55 61 64 66 72 72 78 81 87 96 106 118 124 125 131 134 137 137 133
76 72 70 68 66 64 62 60 57 55 52 50 52 50 49 49 52 53 53 52 53 58 63 65 69 74 77 80 86 94 104 116 125 129 134 139 140 139
72 71 68 66 64 62 58 57 55 54 51 48 47 44 43 43 46 48 50 49 48 50 58 63 65 69 73 77 80 86 95 105 116 127 131 136 143 143
71 69 65 63 61 59 57 54 51 50 49 46 45 43 41 39 41 41 44 45 44 47 51 59 60 64 68 73 77 82 87 95 105 116 127 135 142 146
69 65 62 59 58 58 55 51 47 44 43 43 42 39 37 35 36 36 37 39 42 43 49 55 58 60 65 69 73 76 82 88 97 107 118 131 138 144
66 62 59 56 55 55 51 47 43 41 39 37 36 34 33 32 31 33 34 34 36 39 46 51 56 56 58 64 68 72 78 82 89 98 107 122 132 138
62 59 55 54 53 50 47 44 40 39 37 35 32 30 28 28 28 29 30 31 33 37 44 47 51 52 53 57 64 68 73 77 82 90 99 110 121 130
58 55 53 51 48 45 43 40 38 37 35 32 30 27 26 25 25 25 26 28 30 33 37 43 47 48 49 53 60 64 67 71 76 83 91 100 109 118
56 53 52 49 44 41 38 38 37 34 32 30 27 25 24 23 23 22 22 23 25 28 32 39 41 44 49 53 57 60 64 68 71 77 83 90 99 108
53 52 52 47 41 39 36 35 34 32 30 28 26 24 23 22 20 19 19 19 20 24 27 31 36 42 45 46 50 55 60 64 68 73 80 86 92 99
52 51 50 46 41 37 36 34 31 30 27 26 24 22 21 20 18 17 18 17 19 22 25 29 33 36 37 41 47 53 58 61 63 68 75 81 86 91
50 49 47 43 41 37 32 31 30 28 26 24 22 21 20 20 17 16 17 17 19 21 23 28 33 37 42 46 49 53 57 59 61 65 69 74 79 84
48 47 44 40 39 38 35 32 30 28 26 24 21 20 20 20 18 16 16 17 18 20 23 27 31 35 38 40 43 46 51 56 58 60 64 68 72 76
46 45 41 37 36 35 34 32 29 28 26 24 21 19 19 19 17 16 16 18 19 20 22 25 28 32 35 37 39 41 46 50 54 55 57 61 65 70
45 43 39 35 33 33 32 31 29 28 26 24 22 19 18 19 18 17 16 17 19 20 22 24 27 29 32 34 37 40 43 45 48 52 57 59 61 65
44 40 37 34 32 31 30 30 28 26 26 24 22 20 17 18 19 18 17 17 19 20 22 23 25 28 30 32 35 37 40 42 45 48 51 55 59 60
41 39 36 33 32 31 30 28 27 26 25 25 23 20 18 17 19 19 19 18 19 20 22 23 25 27 29 31 33 35 37 40 42 44 47 51 54 58
39 37 35 34 32 31 30 29 27 26 24 24 23 22 20 18 18 20 21 21 21 22 23 24 25 27 29 31 32 34 35 37 40 42 44 47 50 52
38 35 34 33 32 31 30 29 28 25 24 24 23 22 21 20 19 20 22 24 24 24 24 26 28 28 30 32 32 34 36 37 39 41 42 44 47 50
Wind_Direction
306 302 299 297 295 294 294 292 289 286 284 281 278 277 272 266 261 258 256 252 247 243 240 239 235 233 233 231 230 232 233 232 228 226 224 224 223 222
306 303 301 299 298 297 295 293 291 287 284 282 281 277 273 266 260 256 253 251 247 245 242 238 237 234 231 231 229 227 229 231 229 227 224 223 223 223
306 303 302 301 300 298 297 295 293 290 286 284 281 280 276 270 262 255 252 250 248 244 242 241 237 235 233 230 229 227 225 226 229 227 226 222 222 222
305 305 304 303 302 301 300 298 295 292 288 282 281 278 275 273 269 259 252 248 247 244 240 240 237 236 233 231 229 227 225 223 224 226 226 224 221 221
307 307 306 305 305 303 302 299 297 294 290 283 280 276 273 270 268 265 259 249 245 245 240 238 236 235 233 230 228 227 226 223 222 223 225 225 223 220
309 309 309 308 307 306 305 302 299 295 291 286 281 278 274 269 264 262 259 254 247 243 242 239 234 233 232 230 228 227 226 224 222 221 222 225 225 223
311 312 312 310 308 306 305 303 299 295 292 287 283 280 276 270 266 261 258 253 248 241 239 239 233 232 230 229 227 226 224 224 223 222 220 221 225 224
314 314 312 310 309 307 306 303 300 296 292 289 286 284 279 273 266 261 257 254 245 238 236 238 234 232 230 228 226 225 224 223 223 223 220 220 221 224
315 315 313 312 311 309 307 306 302 296 293 291 288 283 279 272 266 260 255 249 244 238 235 234 232 227 226 227 226 224 224 222 222 222 220 220 220 222
316 316 315 314 312 310 309 308 304 301 298 295 290 285 281 275 266 259 256 250 243 234 232 232 233 228 225 224 225 224 223 222 221 221 221 220 221 221
317 316 317 317 314 312 310 308 305 303 301 298 293 289 284 277 269 259 254 250 243 234 231 230 231 231 225 224 224 223 223 221 220 220 221 221 222 222
317 318 319 318 315 312 310 309 307 305 303 300 297 294 287 279 271 263 256 251 244 238 232 229 227 223 222 222 223 223 223 221 219 220 221 221 222 223
320 321 321 319 317 314 312 311 309 306 303 302 300 296 290 283 275 268 260 250 241 236 234 230 226 220 218 219 221 220 220 220 218 218 219 221 222 224
322 322 321 320 320 317 315 313 311 307 306 305 302 297 291 285 277 272 263 251 238 233 229 229 225 221 220 220 220 218 219 219 217 216 217 218 220 222
323 323 321 321 320 320 318 317 315 311 308 306 303 297 291 285 277 271 261 252 238 233 227 218 220 221 220 219 218 215 216 218 218 216 216 218 219 220
323 322 321 320 320 320 320 319 317 313 309 306 303 296 291 283 275 268 260 248 241 234 227 224 220 218 217 216 215 214 214 216 217 217 216 217 219 221
322 322 320 319 319 321 322 321 318 315 311 307 304 297 291 283 276 269 259 249 240 237 230 225 222 220 220 220 220 219 218 219 218 218 218 217 219 221
321 321 318 316 317 318 319 317 316 313 311 306 302 295 288 280 274 269 258 247 239 232 230 227 225 223 222 221 219 219 219 220 220 220 220 220 220 221
320 319 316 315 315 316 316 315 313 311 309 306 301 293 285 276 271 264 260 249 240 233 228 228 228 226 223 221 220 219 219 220 220 220 220 220 220 220
318 317 315 313 313 315 314 313 312 309 305 303 299 293 283 275 266 259 256 252 244 238 231 226 225 226 226 224 222 220 219 219 219 220 220 221 222 222
317 316 314 312 311 313 311 309 308 306 304 299 294 291 283 273 266 257 252 248 246 242 236 228 225 224 225 224 223 222 220 219 218 219 220 220 220 222
316 314 313 312 311 310 309 308 305 304 302 297 291 286 281 272 264 258 251 246 242 239 236 231 228 225 225 225 224 223 223 222 221 220 219 220 221 222
313 313 312 310 309 309 308 307 304 302 301 297 290 284 279 273 265 257 253 247 242 238 235 232 230 228 225 224 223 222 220 221 222 223 223 223 222 222
Height
10245 10228 10211 10197 10185 10175 10166 10159 10155 10149 10129 10118 10121 10126 10130 10132 10134 10135 10137 10141 10147 10153 10162 10174 10190 10205 10222 10243 10266 10288 10308 10332 10352 10371 10391 10408 10425 10439
10212 10196 10181 10167 10155 10147 10139 10131 10125 10123 10113 10093 10093 10098 10100 10104 10107 10109 10110 10112 10118 10124 10133 10144 10156 10171 10188 10204 10225 10248 10270 10293 10317 10338 10359 10380 10397 10413
10184 10170 10155 10143 10131 10122 10114 10107 10100 10096 10095 10067 10072 10071 10071 10076 10082 10085 10085 10087 10092 10100 10107 10117 10129 10141 10157 10173 10189 10210 10232 10256 10280 10304 10327 10349 10367 10383
10160 10146 10133 10121 10109 10099 10092 10085 10078 10072 10072 10057 10049 10051 10051 10050 10055 10057 10062 10065 10068 10074 10086 10090 10100 10113 10127 10142 10159 10177 10197 10219 10244 10269 10292 10321 10338 10357
10137 10124 10113 10101 10088 10078 10071 10063 10057 10050 10046 10042 10030 10032 10030 10031 10032 10033 10037 10042 10046 10052 10061 10065 10080 10089 10102 10116 10130 10146 10164 10186 10215 10236 10260 10283 10305 10325
10117 10105 10093 10081 10069 10058 10050 10043 10037 10030 10026 10022 10015 10013 10012 10013 10012 10013 10015 10020 10027 10033 10039 10046 10056 10064 10076 10090 10105 10121 10137 10156 10178 10202 10227 10250 10274 10295
10098 10086 10074 10062 10051 10041 10034 10025 10019 10011 10007 10003 9998 9997 9995 9995 9994 9995 9997 10002 10008 10014 10019 10023 10034 10044 10055 10068 10081 10096 10111 10129 10149 10170 10194 10218 10240 10263
10078 10067 10057 10045 10034 10023 10017 10010 10003 9995 9989 9986 9982 9981 9980 9980 9978 9980 9981 9984 9990 9996 10000 10005 10017 10026 10036 10046 10060 10072 10087 10104 10122 10140 10165 10184 10204 10228
10062 10050 10040 10030 10018 10007 10000 9993 9988 9982 9976 9971 9967 9966 9965 9966 9965 9966 9966 9969 9973 9980 9984 9987 9994 10006 10016 10027 10038 10054 10066 10082 10099 10114 10136 10153 10172 10192
10045 10034 10024 10014 10004 9994 9986 9979 9973 9968 9963 9959 9955 9953 9952 9951 9951 9952 9954 9957 9960 9965 9968 9972 9978 9990 10002 10011 10021 10034 10046 10061 10076 10092 10109 10125 10141 10162
10031 10020 10011 10001 9991 9982 9974 9967 9962 9956 9951 9947 9944 9942 9941 9940 9939 9941 9942 9944 9947 9950 9954 9960 9966 9975 9985 9996 10005 10015 10026 10041 10058 10072 10085 10100 10117 10136
10020 10009 9998 9990 9981 9972 9964 9957 9951 9946 9941 9937 9934 9932 9931 9930 9930 9930 9931 9933 9937 9940 9945 9949 9953 9962 9973 9982 9990 10000 10011 10024 10038 10052 10065 10080 10096 10112
10005 9995 9987 9978 9970 9962 9955 9948 9942 9937 9932 9928 9926 9924 9922 9922 9921 9921 9921 9923 9928 9931 9934 9938 9946 9953 9960 9966 9975 9985 9995 10006 10020 10034 10048 10062 10077 10090
9993 9983 9975 9967 9960 9952 9947 9941 9934 9928 9924 9921 9918 9916 9915 9914 9914 9914 9914 9917 9920 9921 9925 9932 9938 9943 9949 9957 9965 9974 9982 9992 10004 10017 10029 10040 10054 10068
9983 9974 9964 9956 9950 9944 9937 9932 9927 9921 9917 9914 9912 9910 9909 9908 9908 9908 9909 9910 9912 9914 9918 9923 9928 9935 9942 9947 9953 9960 9967 9977 9989 10002 10013 10022 10035 10049
9973 9965 9956 9948 9941 9936 9931 9925 9920 9915 9911 9908 9906 9904 9903 9902 9902 9903 9904 9905 9906 9908 9912 9916 9920 9925 9930 9934 9941 9949 9957 9966 9976 9986 9998 10010 10022 10032
9964 9956 9948 9941 9933 9927 9922 9918 9914 9910 9906 9903 9900 9899 9897 9897 9897 9898 9899 9900 9901 9904 9907 9910 9914 9919 9924 9929 9935 9943 9950 9957 9966 9975 9985 9997 10008 10019
9955 9947 9940 9934 9927 9921 9916 9911 9908 9904 9901 9897 9895 9894 9893 9892 9892 9893 9894 9895 9897 9899 9902 9905 9908 9912 9917 9923 9928 9934 9941 9947 9956 9966 9975 9984 9994 10004
9945 9938 9932 9926 9920 9915 9910 9905 9901 9898 9895 9892 9890 9888 9888 9887 9887 9887 9888 9890 9891 9894 9896 9899 9903 9906 9910 9915 9920 9926 9931 9938 9946 9954 9962 9970 9979 9988
9935 9929 9923 9917 9912 9908 9903 9899 9895 9892 9888 9886 9883 9882 9882 9882 9882 9882 9883 9884 9886 9887 9890 9893 9896 9900 9904 9908 9913 9918 9924 9929 9936 9943 9951 9959 9967 9976
9926 9920 9913 9908 9904 9899 9896 9892 9889 9885 9882 9879 9877 9876 9876 9876 9876 9877 9878 9879 9880 9882 9884 9887 9891 9894 9897 9901 9905 9910 9916 9922 9928 9934 9940 9947 9955 9962
9916 9909 9903 9898 9894 9890 9887 9884 9881 9878 9875 9873 9871 9869 9869 9869 9869 9871 9872 9874 9875 9877 9880 9882 9885 9888 9891 9894 9898 9903 9907 9913 9918 9924 9930 9937 9944 9951
9905 9900 9894 9890 9885 9882 9878 9875 9872 9870 9867 9865 9864 9862 9862 9862 9862 9863 9865 9867 9869 9871 9873 9876 9878 9881 9884 9887 9891 9895 9900 9905 9910 9915 9921 9927 9933 9939